User: anonymous   Login
Location: Musselshell
(46.5176°N, 108.0911°W)
Time: 19:49:32
(UTC+00:00)
Language:

Hubble Space Telescope - Orbit

View from above orbital plane
View from above orbital plane
View from above satellite
View from above satellite

Ground track
Ground track

The orbit data is extracted from the following two-line orbital elements,

1 20580U 90037B   22145.49082282  .00003419  00000-0  19152-3 0  9991
2 20580  28.4702 320.9492 0002731 141.8435 242.6252 15.10504068563005
Epoch (UTC): 25 May 2022 11:46:47
Eccentricity: 0.0002731
inclination: 28.4702°
perigee height: 533 km
apogee height: 536 km
right ascension of ascending node: 320.9492°
argument of perigee: 141.8435°
revolutions per day: 15.10504068
mean anomaly at epoch: 242.6252°
orbit number at epoch: 56300

The dashed part of the orbit path shows where the satellite is in the earth's shadow,  

DLR